DW8947 Weather Reports


time (UTC)temp
F
wind
direction
speed
knots
gust
knots
rain 1hr
in
rain 24hr
in
rain mn
in
humidity
%
barometer
mb
20260510200204 59 161 0.0 1.7 0.00 0.00 0.00 77 1018.0
20260510194706 59 161 0.0 0.9 0.00 0.00 0.00 76 1018.0
20260510194204 59 162 0.0 1.7 0.00 0.00 0.00 77 1017.9
20260510192204 59 233 0.0 1.7 0.00 0.00 0.00 76 1017.7
20260510190704 59 183 0.0 1.7 0.00 0.00 0.00 76 1017.8
20260510190204 59 183 0.0 1.7 0.00 0.00 0.00 75 1017.9
20260510185704 59 196 0.0 1.7 0.00 0.00 0.00 75 1017.7
20260510185203 59 196 0.0 1.7 0.00 0.00 0.00 75 1017.7
20260510184704 59 196 0.0 1.7 0.00 0.00 0.00 75 1017.6
20260510184204 59 196 0.0 1.7 0.00 0.00 0.00 76 1017.6
20260510183204 59 195 0.0 1.7 0.00 0.00 0.00 76 1017.4
20260510182704 59 188 0.0 1.7 0.00 0.00 0.00 76 1017.2
20260510180204 58 301 0.0 1.7 0.00 0.00 0.00 77 1017.3
20260510174204 58 196 0.0 1.7 0.00 0.00 0.00 77 1016.8
20260510173204 58 189 0.0 0.9 0.00 0.00 0.00 76 1017.0
20260510172705 58 31 0.9 1.7 0.00 0.00 0.00 76 1017.0
20260510171704 58 251 0.0 1.7 0.00 0.00 0.00 79 1016.9
20260510171204 57 39 0.9 1.7 0.00 0.00 0.00 79 1017.0
20260510170704 57 164 0.0 0.9 0.00 0.00 0.00 79 1017.1
20260510164704 56 253 0.0 1.7 0.00 0.00 0.00 81 1017.1
20260510164204 56 253 0.0 1.7 0.00 0.00 0.00 80 1016.9
20260510163704 56 253 0.0 1.7 0.00 0.00 0.00 80 1016.8
20260510163204 56 253 0.0 1.7 0.00 0.00 0.00 81 1016.7
20260510162704 55 38 0.0 1.7 0.00 0.00 0.00 82 1016.5
20260510161704 55 296 0.0 1.7 0.00 0.00 0.00 82 1016.3
20260510155204 55 296 0.0 1.7 0.00 0.00 0.00 85 1016.4
20260510154705 54 296 0.0 1.7 0.00 0.00 0.00 86 1016.2
20260510154204 54 296 0.0 1.7 0.00 0.00 0.00 86 1016.2
20260510153704 54 296 0.0 1.7 0.00 0.00 0.00 86 1016.2
20260510152704 54 296 0.0 1.7 0.00 0.00 0.00 86 1016.1
20260510152204 54 296 0.0 1.7 0.00 0.00 0.00 87 1016.2
20260510151704 54 296 0.0 0.9 0.00 0.00 0.00 87 1016.1
20260510150704 54 296 0.0 1.7 0.00 0.00 0.00 88 1016.1
20260510150204 53 296 0.0 1.7 0.00 0.00 0.00 90 1016.2
20260510143705 52 296 0.0 1.7 0.00 0.00 0.00 91 1016.3
20260510143204 52 296 0.0 0.0 0.00 0.00 0.00 91 1016.1
20260510141204 51 296 0.0 1.7 0.00 0.00 0.00 91 1016.4
20260510135704 51 296 0.0 1.7 0.00 0.00 0.00 91 1015.9
20260510134204 50 296 0.0 1.7 0.00 0.00 0.00 91 1015.9
20260510133704 50 296 0.0 1.7 0.00 0.00 0.00 92 1015.8
20260510132204 50 296 0.0 0.0 0.00 0.00 0.00 92 1015.8
20260510131703 50 296 0.0 0.0 0.00 0.00 0.00 92 1015.9
20260510131204 50 296 0.0 0.0 0.00 0.00 0.00 92 1015.9
20260510125704 49 296 0.0 0.0 0.00 0.00 0.00 92 1016.1
20260510125204 49 296 0.0 0.0 0.00 0.00 0.00 92 1016.1
20260510123704 49 296 0.0 0.0 0.00 0.00 0.00 92 1015.7
20260510122704 49 296 0.0 0.0 0.00 0.00 0.00 91 1016.0
20260510122204 49 296 0.0 0.0 0.00 0.00 0.00 91 1015.9
20260510120704 49 296 0.0 0.0 0.00 0.00 0.00 90 1015.8
20260510120204 49 296 0.0 0.0 0.00 0.00 0.00 90 1016.0
20260510115204 50 296 0.0 0.0 0.00 0.00 0.00 89 1015.8
20260510114704 50 296 0.0 0.0 0.00 0.00 0.00 89 1015.7
20260510114204 50 296 0.0 0.0 0.00 0.00 0.00 89 1015.6
20260510113704 50 296 0.0 0.0 0.00 0.00 0.00 88 1015.6
20260510112204 50 296 0.0 0.0 0.00 0.00 0.00 88 1015.5
20260510111704 50 296 0.0 0.0 0.00 0.00 0.00 88 1015.5
20260510111204 51 296 0.0 1.7 0.00 0.00 0.00 88 1015.5
20260510110704 51 296 0.0 0.9 0.00 0.00 0.00 88 1015.4
20260510105704 51 296 0.0 0.0 0.00 0.00 0.00 88 1015.4
20260510104204 51 296 0.0 0.0 0.00 0.00 0.00 87 1015.1
20260510103205 51 296 0.0 1.7 0.00 0.00 0.00 87 1015.0
20260510102204 52 296 0.0 1.7 0.00 0.00 0.00 86 1014.9
20260510100704 52 283 0.0 0.9 0.00 0.00 0.00 86 1015.1
20260510100204 52 283 0.0 1.7 0.00 0.00 0.00 86 1015.0
20260510093204 52 283 0.0 0.9 0.00 0.00 0.00 85 1014.8
20260510091204 53 39 0.0 0.0 0.00 0.00 0.00 84 1014.8
20260510090704 53 39 0.0 1.7 0.00 0.00 0.00 83 1014.7
20260510085704 53 39 0.0 1.7 0.00 0.00 0.00 83 1014.6
20260510085204 53 39 0.0 1.7 0.00 0.00 0.00 83 1014.6
20260510084704 53 39 0.0 1.7 0.00 0.00 0.00 83 1014.5
20260510084204 53 319 0.0 0.9 0.00 0.00 0.00 82 1014.5
20260510083704 53 318 0.0 1.7 0.00 0.00 0.00 83 1014.6
20260510083204 54 318 0.0 1.7 0.00 0.00 0.00 83 1014.6
20260510082704 54 295 0.0 0.9 0.00 0.00 0.00 83 1014.6
20260510082204 54 296 0.0 0.9 0.00 0.00 0.00 82 1014.7
20260510081704 54 320 0.0 1.7 0.00 0.00 0.00 83 1014.6
20260510081203 54 294 0.0 1.7 0.00 0.00 0.00 82 1014.5
20260510073204 54 314 0.0 0.9 0.00 0.00 0.00 81 1014.6
20260510072705 55 314 0.0 0.9 0.00 0.00 0.00 81 1014.4
20260510072204 55 314 0.0 0.9 0.00 0.00 0.00 80 1014.4
20260510071204 55 314 0.9 1.7 0.00 0.00 0.00 79 1014.5
20260510065204 56 62 0.0 1.7 0.00 0.00 0.00 78 1014.5
20260510064704 56 106 0.0 1.7 0.00 0.00 0.00 77 1014.5
20260510063204 57 158 0.0 1.7 0.00 0.00 0.00 77 1014.5
20260510061704 57 81 0.0 1.7 0.00 0.00 0.00 75 1014.5
20260510061204 57 81 0.0 1.7 0.00 0.00 0.00 74 1014.5
20260510060204 57 81 0.0 1.7 0.00 0.00 0.00 74 1014.5
20260510055704 57 81 0.0 1.7 0.00 0.00 0.00 74 1014.5
20260510055204 57 81 0.0 1.7 0.00 0.00 0.00 74 1014.5
20260510053204 58 81 0.0 1.7 0.00 0.00 0.00 73 1014.5
20260510052204 58 81 0.0 1.7 0.00 0.00 0.00 72 1014.6
20260510051704 58 81 0.0 1.7 0.00 0.00 0.00 72 1014.5
20260510051204 58 81 0.0 1.7 0.00 0.00 0.00 72 1014.6
20260510045704 57 81 0.0 1.7 0.00 0.00 0.00 72 1014.6
20260510044704 57 81 0.0 1.7 0.00 0.00 0.00 72 1014.7
20260510044204 57 81 0.0 1.7 0.00 0.00 0.00 72 1014.6
20260510043704 58 81 0.0 1.7 0.00 0.00 0.00 72 1014.6
20260510043203 58 81 0.0 1.7 0.00 0.00 0.00 72 1014.6
20260510042703 58 81 0.0 1.7 0.00 0.00 0.00 72 1014.6
20260510042204 58 81 0.0 1.7 0.00 0.00 0.00 72 1014.6
20260510041704 58 81 0.0 1.7 0.00 0.00 0.00 71 1014.6
20260510041204 58 81 0.0 1.7 0.00 0.00 0.00 71 1014.5
20260510035704 59 81 0.0 1.7 0.00 0.00 0.00 72 1014.4
20260510034704 59 81 0.0 1.7 0.00 0.00 0.00 72 1014.5
20260510034203 59 81 0.0 0.9 0.00 0.00 0.00 73 1014.5
20260510032204 60 90 0.0 0.9 0.00 0.00 0.00 73 1014.5
20260510031203 61 90 0.0 0.0 0.00 0.00 0.00 73 1014.6
20260510030204 61 90 0.0 0.0 0.00 0.00 0.00 72 1014.6
20260510025704 61 90 0.0 0.0 0.00 0.00 0.00 72 1014.6
20260510023704 62 90 0.0 0.0 0.00 0.00 0.00 71 1014.8
20260510023204 62 90 0.0 0.0 0.00 0.00 0.00 70 1014.8
20260510022204 63 90 0.0 0.0 0.00 0.00 0.00 69 1014.8
20260510021704 63 90 0.0 0.0 0.00 0.00 0.00 68 1014.9
20260510020703 63 90 0.0 1.7 0.00 0.00 0.00 69 1014.9
20260510020204 63 90 0.0 0.0 0.00 0.00 0.00 67 1015.1
20260510014705 64 90 0.0 1.7 0.00 0.00 0.00 65 1015.2
20260510014204 64 358 0.0 1.7 0.00 0.00 0.00 65 1015.3
20260510013704 64 358 0.0 1.7 0.00 0.00 0.00 67 1015.4
20260510013204 64 358 0.0 1.7 0.00 0.00 0.00 63 1015.5
20260510012204 64 48 0.0 1.7 0.00 0.00 0.00 66 1015.6
20260510011204 64 90 0.0 1.7 0.00 0.00 0.00 64 1015.8
20260510010704 64 306 0.0 0.9 0.00 0.00 0.00 64 1015.9
20260510010204 64 308 0.9 1.7 0.00 0.00 0.00 63 1015.9
20260510005204 64 312 0.0 1.7 0.00 0.00 0.00 64 1016.0
20260510003704 64 312 0.0 1.7 0.00 0.00 0.00 63 1016.0
20260510002204 65 306 0.0 0.9 0.00 0.00 0.00 63 1016.2
20260510001704 65 306 0.0 0.9 0.00 0.00 0.00 63 1016.1
20260510001205 65 306 0.0 1.7 0.00 0.00 0.00 63 1016.2
20260509235704 66 333 0.0 0.9 0.00 0.00 0.00 61 1016.3
20260509234704 66 70 0.0 1.7 0.00 0.00 0.00 61 1016.5
20260509234205 66 145 0.0 1.7 0.00 0.00 0.00 60 1016.6
20260509233205 66 312 0.0 1.7 0.00 0.00 0.00 60 1016.6
20260509231705 67 333 0.0 1.7 0.00 0.00 0.00 57 1016.7
20260509231205 67 306 0.0 1.7 0.00 0.00 0.00 58 1016.9
20260509230205 67 357 0.0 1.7 0.00 0.00 0.00 58 1016.9
20260509220705 68 122 0.0 0.9 0.00 0.00 0.00 57 1017.5
20260509215705 68 240 0.0 1.7 0.00 0.00 0.00 57 1017.4
20260509214205 67 167 0.0 0.9 0.00 0.00 0.00 56 1017.6
20260509210705 67 274 0.9 1.7 0.00 0.00 0.00 56 1018.1
20260509205204 67 273 0.0 1.7 0.00 0.00 0.00 59 1018.0
20260509204205 67 293 0.0 1.7 0.00 0.00 0.00 60 1018.3
20260509201705 67 262 0.0 1.7 0.00 0.00 0.00 58 1018.2